www.pogodaiklimat.ru

Погода и климат >> Архив погоды >> Пакистан >> Рохри


ПОГОДА в Рохри

  • Прогноз погоды в Рохри
  • Монитор погоды в Рохри

АРХИВ ПОГОДЫ в Рохри

Время (UTC), дата Ветер
(напр.,м/с)
 
Видим.   Явления Облачность Т
(С)
Тd
(С)
f
(%)
Тe
(С)
Тes
(С)
Комфортность P
(гПа)
Po
(гПа)
Тmin
(С)
Tmax
(С)
R
(мм)
R24
(мм)
S
(см)
21 8.09 ЮЗ 1 4000 м мгла ясно +33.5 +25.1 62 +48 +48 опасность
перегрева
999.5 1000.0
12 9.09 0 н/о
12 10.09 ЮЗ 2 10 км ясно +42.0 +22.1 32 +49 +52 опасность
перегрева
995.9 988.7 +43.0
15 10.09 0 н/о
18 10.09 ЮЗ 1 4000 м мгла ясно +36.0 +23.2 48 +46 +46 опасность
перегрева
998.0 1000.0
21 10.09 ЮЗ 1 4000 м мгла ясно +34.5 +23.1 52 +45 +45 опасность
перегрева
997.3 1000.0
00 11.09 ЮВ 1 4000 м мгла ясно +33.5 +23.5 56 +44 +44 опасность
перегрева
997.4 990.0
03 11.09 ЮВ 1 4000 м мгла ясно +31.0 +23.9 66 +43 +47 опасность
перегрева
999.8 992.4
06 11.09 ЮВ 1 4000 м мгла ясно +36.5 +23.8 48 +47 +68 опасность
перегрева
1000.8 1000.0
09 11.09 ЮЗ 1 10 км ясно +41.0 +20.7 31 +47 +66 опасность
перегрева
998.7 1000.0
12 11.09 ЮЗ 2 10 км ясно +42.5 +18.9 26 +46 +49 опасность
перегрева
997.3 990.1 +43.0
15 11.09 ЮЗ 1 4000 м ясно +38.0 +24.0 45 +49 +49 опасность
перегрева
998.3 1000.0
18 11.09 ЮЗ 1 4000 м мгла ясно +35.0 +25.3 57 +49 +49 опасность
перегрева
1000.5 1000.0
21 11.09 ЮЗ 1 4000 м мгла ясно +34.0 +24.1 56 +46 +46 опасность
перегрева
999.7 1000.0
00 12.09 ЮВ 1 4000 м мгла ясно +32.5 +25.5 67 +47 +47 опасность
перегрева
1000.2 992.8
03 12.09 ЮВ 1 4000 м мгла ясно +30.5 +24.9 72 +44 +48 опасность
перегрева
1001.4 993.9
06 12.09 ЮВ 1 4000 м мгла ясно +35.5 +24.3 52 +47 +67 опасность
перегрева
1002.1 1000.0
09 12.09 ЮЗ 1 10 км ясно +40.5 +21.9 35 +48 +67 опасность
перегрева
999.7 1000.0
12 12.09 ЮЗ 1 10 км ясно +42.0 +20.2 29 +47 +51 опасность
перегрева
998.2 991.0 +42.5
15 12.09 штиль 0 50 км ?/? +34.1 +22.3 50 +43 +43 опасность
перегрева
998.2 1000.0
18 12.09 ЮЗ 3 4000 м мгла ясно +35.0 +25.3 57 +49 +49 опасность
перегрева
1000.1 992.6
21 12.09 Ю 1 4000 м мгла ясно +32.0 +24.2 63 +44 +44 опасность
перегрева
999.9 1000.0
00 13.09 Ю 1 4000 м мгла ясно +31.0 +23.9 66 +43 +43 опасность
перегрева
999.8 992.4
03 13.09 ЮВ 1 4000 м мгла ясно +29.5 +25.3 78 +43 +47 опасность
перегрева
1001.2 993.7
06 13.09 ЮВ 1 4000 м мгла ясно +34.0 +24.1 56 +46 +66 опасность
перегрева
1002.2 1000.0
09 13.09 ЮВ 1 4000 м ясно +38.5 +24.6 45 +50 +70 опасность
перегрева
1001.7 1000.0
12 13.09 штиль 0 4000 м мгла ясно +38.5 +25.4 48 +53 +56 опасность
перегрева
999.3 992.0 +39.1
15 13.09 ЮЗ 1 4000 м мгла ясно +36.0 +24.9 53 +49 +49 опасность
перегрева
999.2 1000.0
18 13.09 ЮЗ 1 4000 м мгла ясно +33.0 +23.8 59 +45 +45 опасность
перегрева
1000.8 1000.0
21 13.09 ЮЗ 1 4000 м мгла ясно +31.5 +22.9 60 +41 +41 опасность
перегрева
1000.0 1000.0
00 14.09 Ю 1 4000 м мгла ясно +30.0 +22.8 65 +40 +40 очень
душно
999.8 992.3
03 14.09 ЮВ 1 4000 м мгла ясно +28.5 +25.0 81 +41 +45 опасность
перегрева
1001.2 993.7
06 14.09 ЮВ 1 4000 м мгла ясно +34.5 +25.5 60 +49 +69 опасность
перегрева
1002.5 1000.0
09 14.09 ЮВ 1 4000 м ясно +38.5 +25.4 48 +53 +71 опасность
перегрева
1001.5 1000.0
12 14.09 штиль 0 4000 м ясно +39.0 +23.5 41 +49 +52 опасность
перегрева
1000.7 993.4 +40.5
15 14.09 штиль 0 4000 м мгла ясно +36.0 +24.9 53 +49 +49 опасность
перегрева
1000.2 1000.0
18 14.09 ЮВ 1 4000 м мгла ясно +34.0 +25.7 62 +49 +49 опасность
перегрева
1001.6 1000.0
21 14.09 ЮВ 1 4000 м мгла ясно +33.0 +24.6 61 +46 +46 опасность
перегрева
1000.4 1000.0
00 15.09 Ю 1 4000 м мгла ясно +31.0 +23.9 66 +43 +43 опасность
перегрева
1000.2 992.8
03 15.09 ЮВ 1 4000 м мгла ясно +29.5 +25.3 78 +43 +47 опасность
перегрева
1002.2 994.7
06 15.09 ЮВ 1 4000 м мгла ясно +35.5 +25.9 58 +51 +71 опасность
перегрева
1003.0 1000.0
09 15.09 ЮВ 1 4000 м ясно +39.0 +22.7 39 +48 +65 опасность
перегрева
1002.5 995.1
12 15.09 штиль 0 4000 м ясно +40.0 +22.2 36 +48 +51 опасность
перегрева
1000.0 992.8 +41.1
15 15.09 штиль 0 4000 м мгла ясно +36.5 +24.6 51 +49 +49 опасность
перегрева
999.9 1000.0
18 15.09 штиль 0 4000 м мгла ясно +34.5 +24.7 57 +48 +48 опасность
перегрева
1001.3 1000.0

 

Местоположение метеостанции Рохри (Пакистан): широта 27.67 долгота 68.90 высота над уровнем моря 68 м.

В архиве по умолчанию представлена погода в Рохри за последнюю неделю. Архивные данные за месяц целиком и за предыдущие месяцы, начиная с января 2011 года, Вы можете получить, выбрав интересующий диапазон дат из раскрывающегося списка и нажав кнопку "Ввод!".


*Определитесь, кто Вы:
робот инопланетянин человек

Внимание! Время в таблицах - всемирное. Для получения местного времени необходимо прибавить поправку, которая равна 5 ч.

Смотрите также архив погоды в соседних городах и на ближайших метеорологических станциях:

Погода в Суккуре (Пакистан) (14 км)
Погода в Ларкане (Пакистан) (73 км)
Погода в Джейкобабаде (Пакистан) (82 км)
Погода в Мохенджо-Даро (Пакистан) (85 км)
Погода в Пад Идан (Пакистан) (119 км)
Погода в Рахим Яр Хан (Пакистан) (163 км)
Погода в Навабшахе (Пакистан) (166 км)
Погода в Ханпуре (Пакистан) (206 км)
Погода в Джайсалмере (Раджастхан, Индия) (217 км)
Погода в Хуздаре (Пакистан) (224 км)

Пояснения к столбцам:

Ветер - указаны скорость ветра в м/с - средняя за 10 мин, порывы в срок и между сроками (в фигурных скобках) и направление, откуда дует ветер: С - северный, СВ - северо-восточный, В - восточный, ЮВ - юго-восточный, Ю - южный, ЮЗ - юго-западный, З - западный, СЗ - северо-западный.
Видимость - горизонтальная дальность видимости в метрах или километрах. При видимости от 1 до 10 км при отсутствии осадков обычно наблюдается дымка, при ухудшении видимости до 1 км и менее - туман. В сухую погоду видимость может ухудшаться дымом, пылью или мглою.
Явления - указаны атмосферные явления, наблюдавшиеся в срок или в последний час перед сроком; фигурными скобками обозначены явления, наблюдавшиеся между сроками (за 1-3 часа до срока); квадратными скобками обозначены град или гололедные отложения с указанием их диаметра в мм.
Облачность - указаны через наклонную черту общая и нижняя облачность в баллах и высота нижней границы облаков в метрах; квадратными скобками обозначены формы облаков: Ci - перистые, Cs - перисто-слоистые, Cc - перисто-кучевые, Ac - высококучевые, As - высокослоистые, Sc - слоисто-кучевые, Ns - слоисто-дождевые, Cu - кучевые, Cb - кучево-дождевые. Подробнее классификацию облаков см. в Атласе облаков (PDF).
T - Температура воздуха - температура, измеренная на высоте 2 м над землей.
Td - Температура точки росы - температура, при понижении до которой содержащийся в воздухе водяной пар достигнет насыщения.
f - Относительная влажность воздуха - влажноcть воздуха, измеренная на высоте 2 м над землей.
Te - Эффективная температура - температура, которую ощущает одетый по сезону человек в тени. Характеристика душности погоды. При расчете учитывается влияние влажности воздуха и скорости ветра на теплоощущения человека.
Tes - Эффективная температура на солнце - температура, которую ощущает человек, с поправкой на солнечный нагрев. Характеристика знойности погоды. Зависит от высоты солнца над горизонтом, облачности и скорости ветра. Ночью, в пасмурную погоду, а также при ветре 12 м/с и более поправка равна нулю.
P - Атмосферное давление - приведенное к уровню моря атмосферное давление.
Po - Атмосферное давление - измеренное на уровне метеостанции атмосферное давление.
Tmin - Минимальная температура - минимум температуры воздуха на высоте 2 м над землей.
Tmax - Максимальная температура - максимум температуры воздуха на высоте 2 м над землей.
R - Количество осадков - Количество выпавших осадков за период времени, мм. При наведении курсора мыши на число - период времени, за который выпало указанное количество осадков.
R24 - Количество осадков - Количество выпавших осадков за 24 часа, мм.
S - Снежный покров - Высота снежного покрова, см. При наведении курсора мыши на число - состояние снежного покрова и степень покрытия местности в баллах.